When you browse on this site, cookies collect data to enhance your experience and personalize the content and advertising you see.
Visit our Privacy Policy to learn more. By continuing to use the site, you agree to this use of cookies and data.

Meteo pe oră la Dziadowek

Astăzi, 23 Septembrie, Miercuri

Timp Temperatura Precipitaţii Vânt Presiune Umiditate
00:00 +13°C° 0 mm 3 m/s 738 mmHg 73%
01:00 +13°C° 0 mm 3 m/s 738 mmHg 72%
02:00 +13°C° 0 mm 3 m/s 737 mmHg 69%
03:00 +13°C° 0 mm 3 m/s 737 mmHg 70%
04:00 +12°C° 0 mm 3 m/s 737 mmHg 71%
05:00 +12°C° 0 mm 3 m/s 737 mmHg 71%
06:00 +13°C° 0 mm 3 m/s 736 mmHg 71%
07:00 +13°C° 0 mm 4 m/s 736 mmHg 70%
08:00 +14°C° 0 mm 4 m/s 736 mmHg 69%
09:00 +17°C° 0 mm 4 m/s 736 mmHg 66%
10:00 +18°C° 0 mm 4 m/s 736 mmHg 62%
11:00 +20°C° 0 mm 4 m/s 736 mmHg 58%
12:00 +21°C° 0 mm 4 m/s 736 mmHg 55%
13:00 +22°C° 0 mm 4 m/s 736 mmHg 53%
14:00 +23°C° 0 mm 4 m/s 736 mmHg 50%
15:00 +23°C° 0 mm 4 m/s 735 mmHg 54%
16:00 +22°C° 0 mm 3 m/s 735 mmHg 57%
17:00 +21°C° 0 mm 3 m/s 734 mmHg 61%
18:00 +20°C° 0 mm 3 m/s 734 mmHg 65%
19:00 +18°C° 0 mm 2 m/s 735 mmHg 70%
20:00 +16°C° 0 mm 2 m/s 735 mmHg 74%
21:00 +16°C° 0 mm 3 m/s 734 mmHg 77%
22:00 +14°C° 0 mm 3 m/s 734 mmHg 80%
23:00 +13°C° 0 mm 3 m/s 734 mmHg 83%

Mâine, 24 Septembrie, Joi

Timp Temperatura Precipitaţii Vânt Presiune Umiditate
00:00 +13°C° 0 mm 3 m/s 734 mmHg 84%
01:00 +13°C° 0 mm 3 m/s 734 mmHg 84%
02:00 +13°C° 0 mm 3 m/s 734 mmHg 85%
03:00 +13°C° 0 mm 3 m/s 734 mmHg 85%
04:00 +13°C° 0 mm 3 m/s 734 mmHg 86%
05:00 +12°C° 0 mm 3 m/s 734 mmHg 87%
06:00 +13°C° 0 mm 3 m/s 734 mmHg 85%
07:00 +14°C° 0 mm 4 m/s 734 mmHg 83%
08:00 +14°C° 0 mm 4 m/s 734 mmHg 81%
09:00 +17°C° 0 mm 4 m/s 734 mmHg 75%
10:00 +19°C° 0 mm 4 m/s 734 mmHg 70%
11:00 +20°C° 0 mm 4 m/s 734 mmHg 65%
12:00 +21°C° 0 mm 4 m/s 734 mmHg 61%
13:00 +23°C° 0 mm 4 m/s 734 mmHg 58%
14:00 +25°C° 0 mm 4 m/s 734 mmHg 55%
15:00 +23°C° 0 mm 4 m/s 734 mmHg 58%
16:00 +22°C° 0 mm 3 m/s 734 mmHg 62%
17:00 +23°C° 0 mm 2 m/s 734 mmHg 66%
18:00 +20°C° 0.1 mm 2 m/s 734 mmHg 71%
19:00 +19°C° 0.1 mm 2 m/s 734 mmHg 76%
20:00 +17°C° 0.1 mm 2 m/s 734 mmHg 81%
21:00 +17°C° 0.1 mm 2 m/s 734 mmHg 83%
22:00 +16°C° 0.1 mm 2 m/s 734 mmHg 84%
23:00 +16°C° 0.1 mm 2 m/s 734 mmHg 86%

Poimâine, 25 Septembrie, Vineri

Timp Temperatura Precipitaţii Vânt Presiune Umiditate
00:00 +16°C° 0 mm 2 m/s 734 mmHg 87%
01:00 +15°C° 0 mm 2 m/s 734 mmHg 89%
02:00 +15°C° 0 mm 2 m/s 734 mmHg 90%
03:00 +15°C° 0 mm 2 m/s 733 mmHg 91%
04:00 +14°C° 0 mm 2 m/s 733 mmHg 92%
05:00 +14°C° 0 mm 2 m/s 733 mmHg 92%
06:00 +15°C° 0 mm 2 m/s 733 mmHg 91%
07:00 +14°C° 0 mm 3 m/s 733 mmHg 89%
08:00 +16°C° 0 mm 3 m/s 733 mmHg 87%
09:00 +17°C° 0 mm 4 m/s 732 mmHg 82%
10:00 +19°C° 0 mm 4 m/s 732 mmHg 77%
11:00 +21°C° 0 mm 5 m/s 732 mmHg 71%
12:00 +22°C° 0 mm 5 m/s 732 mmHg 66%
13:00 +23°C° 0 mm 6 m/s 731 mmHg 62%
14:00 +24°C° 0 mm 6 m/s 731 mmHg 57%
15:00 +23°C° 0.2 mm 6 m/s 730 mmHg 61%
16:00 +22°C° 0.2 mm 6 m/s 730 mmHg 66%
17:00 +21°C° 0.2 mm 6 m/s 729 mmHg 70%
18:00 +20°C° 0 mm 6 m/s 729 mmHg 72%
19:00 +19°C° 0 mm 6 m/s 729 mmHg 74%
20:00 +17°C° 0 mm 6 m/s 729 mmHg 77%
21:00 +17°C° 0 mm 5 m/s 729 mmHg 78%
22:00 +16°C° 0 mm 5 m/s 728 mmHg 79%
23:00 +16°C° 0 mm 5 m/s 728 mmHg 80%

26 Septembrie, Sâmbătă

Timp Temperatura Precipitaţii Vânt Presiune Umiditate
00:00 +15°C° 0 mm 5 m/s 728 mmHg 83%
01:00 +15°C° 0 mm 4 m/s 728 mmHg 86%
02:00 +15°C° 0 mm 4 m/s 728 mmHg 89%
03:00 +15°C° 0 mm 4 m/s 728 mmHg 89%
04:00 +15°C° 0 mm 4 m/s 728 mmHg 89%
05:00 +15°C° 0 mm 4 m/s 728 mmHg 90%
06:00 +15°C° 0 mm 4 m/s 728 mmHg 89%
07:00 +15°C° 0 mm 4 m/s 728 mmHg 87%
08:00 +15°C° 0 mm 4 m/s 728 mmHg 86%
09:00 +17°C° 0 mm 4 m/s 728 mmHg 81%
10:00 +17°C° 0 mm 5 m/s 729 mmHg 76%
11:00 +19°C° 0 mm 5 m/s 729 mmHg 71%
12:00 +20°C° 0 mm 5 m/s 729 mmHg 70%
13:00 +20°C° 0 mm 5 m/s 729 mmHg 69%
14:00 +21°C° 0 mm 6 m/s 728 mmHg 68%
15:00 +21°C° 0 mm 6 m/s 728 mmHg 68%
16:00 +21°C° 0 mm 5 m/s 728 mmHg 69%
17:00 +21°C° 0 mm 5 m/s 728 mmHg 69%
18:00 +21°C° 0 mm 5 m/s 728 mmHg 67%
19:00 +20°C° 0 mm 6 m/s 729 mmHg 65%
20:00 +20°C° 0 mm 6 m/s 729 mmHg 62%
21:00 +20°C° 0 mm 6 m/s 729 mmHg 61%
22:00 +19°C° 0 mm 6 m/s 729 mmHg 59%
23:00 +18°C° 0 mm 7 m/s 729 mmHg 57%

27 Septembrie, Duminică

Timp Temperatura Precipitaţii Vânt Presiune Umiditate
00:00 +19°C° 0 mm 6 m/s 729 mmHg 57%
01:00 +17°C° 0 mm 6 m/s 729 mmHg 57%
02:00 +17°C° 0 mm 6 m/s 729 mmHg 56%
03:00 +16°C° 0 mm 6 m/s 729 mmHg 57%
04:00 +16°C° 0 mm 6 m/s 729 mmHg 58%
05:00 +16°C° 0 mm 6 m/s 729 mmHg 59%
06:00 +16°C° 0 mm 6 m/s 729 mmHg 60%
07:00 +15°C° 0 mm 6 m/s 729 mmHg 61%
08:00 +15°C° 0 mm 6 m/s 729 mmHg 62%
09:00 +16°C° 0 mm 7 m/s 729 mmHg 61%
10:00 +17°C° 0 mm 7 m/s 729 mmHg 59%
11:00 +18°C° 0 mm 7 m/s 729 mmHg 58%
12:00 +20°C° 0 mm 7 m/s 729 mmHg 56%
13:00 +20°C° 0 mm 7 m/s 729 mmHg 53%
14:00 +21°C° 0 mm 8 m/s 729 mmHg 51%
15:00 +20°C° 0 mm 7 m/s 729 mmHg 56%
16:00 +18°C° 0 mm 7 m/s 729 mmHg 61%
17:00 +17°C° 0 mm 6 m/s 729 mmHg 66%
18:00 +17°C° 0 mm 6 m/s 729 mmHg 65%
19:00 +17°C° 0 mm 6 m/s 729 mmHg 64%
20:00 +17°C° 0 mm 6 m/s 728 mmHg 63%
21:00 +16°C° 0 mm 7 m/s 728 mmHg 66%
22:00 +16°C° 0 mm 7 m/s 728 mmHg 69%
23:00 +15°C° 0 mm 7 m/s 728 mmHg 72%

28 Septembrie, Luni

Timp Temperatura Precipitaţii Vânt Presiune Umiditate
00:00 +15°C° 0 mm 7 m/s 728 mmHg 74%
01:00 +15°C° 0 mm 7 m/s 728 mmHg 77%
02:00 +14°C° 0 mm 6 m/s 728 mmHg 79%
03:00 +13°C° 0.1 mm 6 m/s 729 mmHg 81%
04:00 +11°C° 0.1 mm 6 m/s 729 mmHg 82%
05:00 +10°C° 0.1 mm 6 m/s 729 mmHg 83%
06:00 +10°C° 0 mm 6 m/s 729 mmHg 80%
07:00 +9°C° 0 mm 6 m/s 730 mmHg 76%
08:00 +9°C° 0 mm 6 m/s 730 mmHg 73%
09:00 +9°C° 0 mm 6 m/s 730 mmHg 70%
10:00 +10°C° 0 mm 6 m/s 731 mmHg 67%
11:00 +10°C° 0 mm 6 m/s 731 mmHg 65%
12:00 +11°C° 0 mm 6 m/s 731 mmHg 63%
13:00 +12°C° 0 mm 7 m/s 731 mmHg 60%
14:00 +12°C° 0 mm 7 m/s 732 mmHg 58%
15:00 +13°C° 0 mm 6 m/s 732 mmHg 61%
16:00 +11°C° 0 mm 6 m/s 732 mmHg 63%
17:00 +12°C° 0 mm 5 m/s 732 mmHg 66%
18:00 +10°C° 0 mm 5 m/s 732 mmHg 70%
19:00 +8°C° 0 mm 4 m/s 732 mmHg 75%
20:00 +7°C° 0 mm 4 m/s 732 mmHg 79%
21:00 +7°C° 0 mm 4 m/s 732 mmHg 81%
22:00 +6°C° 0 mm 4 m/s 733 mmHg 83%
23:00 +6°C° 0 mm 4 m/s 733 mmHg 85%
Arată mai mult